Date;H [cm]
01.01.2003;88
02.01.2003;71
03.01.2003;83
04.01.2003;101
05.01.2003;104
06.01.2003;96
07.01.2003;94
08.01.2003;113
09.01.2003;117
10.01.2003;105
11.01.2003;113
12.01.2003;111
13.01.2003;135
14.01.2003;121
15.01.2003;132
16.01.2003;163
17.01.2003;149
18.01.2003;148
19.01.2003;145
20.01.2003;129
21.01.2003;134
22.01.2003;123
23.01.2003;123
24.01.2003;124
25.01.2003;137
26.01.2003;133
27.01.2003;136
28.01.2003;127
29.01.2003;125
30.01.2003;139
31.01.2003;133
01.02.2003;132
02.02.2003;133
03.02.2003;119
04.02.2003;103
05.02.2003;108
06.02.2003;115
07.02.2003;117
08.02.2003;110
09.02.2003;107
10.02.2003;105
11.02.2003;108
12.02.2003;114
13.02.2003;113
14.02.2003;113
15.02.2003;90
16.02.2003;110
17.02.2003;107
18.02.2003;111
19.02.2003;106
20.02.2003;104
21.02.2003;102
22.02.2003;100
23.02.2003;95
24.02.2003;88
25.02.2003;95
26.02.2003;92
27.02.2003;75
28.02.2003;92
01.03.2003;60
02.03.2003;77
03.03.2003;81
04.03.2003;95
05.03.2003;85
06.03.2003;89
07.03.2003;82
08.03.2003;63
09.03.2003;70
10.03.2003;78
11.03.2003;94
12.03.2003;96
13.03.2003;98
14.03.2003;99
15.03.2003;102
16.03.2003;98
17.03.2003;101
18.03.2003;106
19.03.2003;111
20.03.2003;100
21.03.2003;108
22.03.2003;100
23.03.2003;96
24.03.2003;109
25.03.2003;106
26.03.2003;102
27.03.2003;102
28.03.2003;102
29.03.2003;101
30.03.2003;109
31.03.2003;119
01.04.2003;127
02.04.2003;126
03.04.2003;125
04.04.2003;137
05.04.2003;132
06.04.2003;103
07.04.2003;113
08.04.2003;122
09.04.2003;94
10.04.2003;110
11.04.2003;94
12.04.2003;103
13.04.2003;118
14.04.2003;116
15.04.2003;110
16.04.2003;105
17.04.2003;110
18.04.2003;108
19.04.2003;99
20.04.2003;99
21.04.2003;103
22.04.2003;103
23.04.2003;99
24.04.2003;101
25.04.2003;111
26.04.2003;101
27.04.2003;88
28.04.2003;104
29.04.2003;106
30.04.2003;121
01.05.2003;104
02.05.2003;140
03.05.2003;116
04.05.2003;126
05.05.2003;121
06.05.2003;116
07.05.2003;134
08.05.2003;126
09.05.2003;125
10.05.2003;126
11.05.2003;125
12.05.2003;117
13.05.2003;114
14.05.2003;121
15.05.2003;117
16.05.2003;133
17.05.2003;140
18.05.2003;131
19.05.2003;126
20.05.2003;120
21.05.2003;129
22.05.2003;127
23.05.2003;126
24.05.2003;128
25.05.2003;120
26.05.2003;122
27.05.2003;133
28.05.2003;135
29.05.2003;131
30.05.2003;130
31.05.2003;125
01.06.2003;128
02.06.2003;122
03.06.2003;113
04.06.2003;117
05.06.2003;118
06.06.2003;128
07.06.2003;129
08.06.2003;124
09.06.2003;123
10.06.2003;147
11.06.2003;125
12.06.2003;130
13.06.2003;136
14.06.2003;137
15.06.2003;143
16.06.2003;139
17.06.2003;138
18.06.2003;131
19.06.2003;129
20.06.2003;129
21.06.2003;142
22.06.2003;151
23.06.2003;143
24.06.2003;136
25.06.2003;137
26.06.2003;146
27.06.2003;141
28.06.2003;137
29.06.2003;132
30.06.2003;129
01.07.2003;126
02.07.2003;120
03.07.2003;127
04.07.2003;124
05.07.2003;128
06.07.2003;135
07.07.2003;140
08.07.2003;138
09.07.2003;135
10.07.2003;136
11.07.2003;150
12.07.2003;137
13.07.2003;138
14.07.2003;140
15.07.2003;135
16.07.2003;130
17.07.2003;123
18.07.2003;128
19.07.2003;115
20.07.2003;119
21.07.2003;120
22.07.2003;116
23.07.2003;117
24.07.2003;120
25.07.2003;120
26.07.2003;112
27.07.2003;108
28.07.2003;109
29.07.2003;116
30.07.2003;118
31.07.2003;110
01.08.2003;109
02.08.2003;105
03.08.2003;107
04.08.2003;122
05.08.2003;127
06.08.2003;134
07.08.2003;139
08.08.2003;135
09.08.2003;123
10.08.2003;113
11.08.2003;116
12.08.2003;113
13.08.2003;111
14.08.2003;123
15.08.2003;126
16.08.2003;134
17.08.2003;136
18.08.2003;133
19.08.2003;126
20.08.2003;132
21.08.2003;145
22.08.2003;141
23.08.2003;146
24.08.2003;145
25.08.2003;150
26.08.2003;156
27.08.2003;138
28.08.2003;161
29.08.2003;158
30.08.2003;130
31.08.2003;153
01.09.2003;151
02.09.2003;141
03.09.2003;144
04.09.2003;144
05.09.2003;145
06.09.2003;136
07.09.2003;129
08.09.2003;126
09.09.2003;122
10.09.2003;117
11.09.2003;117
12.09.2003;117
13.09.2003;143
14.09.2003;138
15.09.2003;117
16.09.2003;146
17.09.2003;136
18.09.2003;132
19.09.2003;143
20.09.2003;132
21.09.2003;136
22.09.2003;135
23.09.2003;131
24.09.2003;143
25.09.2003;153
26.09.2003;149
27.09.2003;131
28.09.2003;144
29.09.2003;150
30.09.2003;133
01.10.2003;144
02.10.2003;129
03.10.2003;136
04.10.2003;123
05.10.2003;134
06.10.2003;132
07.10.2003;164
08.10.2003;163
09.10.2003;147
10.10.2003;156
11.10.2003;164
12.10.2003;170
13.10.2003;160
14.10.2003;158
15.10.2003;156
16.10.2003;154
17.10.2003;168
18.10.2003;157
19.10.2003;139
20.10.2003;138
21.10.2003;127
22.10.2003;123
23.10.2003;121
24.10.2003;133
25.10.2003;145
26.10.2003;128
27.10.2003;134
28.10.2003;151
29.10.2003;144
30.10.2003;132
31.10.2003;123
01.11.2003;120
02.11.2003;117
03.11.2003;128
04.11.2003;129
05.11.2003;139
06.11.2003;137
07.11.2003;144
08.11.2003;130
09.11.2003;114
10.11.2003;118
11.11.2003;124
12.11.2003;128
13.11.2003;124
14.11.2003;117
15.11.2003;121
16.11.2003;110
17.11.2003;121
18.11.2003;123
19.11.2003;123
20.11.2003;134
21.11.2003;132
22.11.2003;114
23.11.2003;102
24.11.2003;138
25.11.2003;142
26.11.2003;118
27.11.2003;112
28.11.2003;123
29.11.2003;131
30.11.2003;126
01.12.2003;123
02.12.2003;122
03.12.2003;132
04.12.2003;132
05.12.2003;148
06.12.2003;131
07.12.2003;169
08.12.2003;181
09.12.2003;151
10.12.2003;146
11.12.2003;148
12.12.2003;159
13.12.2003;167
14.12.2003;127
15.12.2003;145
16.12.2003;157
17.12.2003;175
18.12.2003;152
19.12.2003;170
20.12.2003;166
21.12.2003;141
22.12.2003;145
23.12.2003;183
24.12.2003;175
25.12.2003;194
26.12.2003;179
27.12.2003;168
28.12.2003;189
29.12.2003;173
30.12.2003;176
31.12.2003;162
01.01.2004;146
02.01.2004;132
03.01.2004;142
04.01.2004;154
05.01.2004;154
06.01.2004;146
07.01.2004;135
08.01.2004;133
09.01.2004;115
10.01.2004;117
11.01.2004;125
12.01.2004;117
13.01.2004;123
14.01.2004;116
15.01.2004;127
16.01.2004;139
17.01.2004;125
18.01.2004;133
19.01.2004;137
20.01.2004;107
21.01.2004;131
22.01.2004;136
23.01.2004;134
24.01.2004;123
25.01.2004;109
26.01.2004;122
27.01.2004;118
28.01.2004;114
29.01.2004;117
30.01.2004;128
31.01.2004;128
01.02.2004;120
02.02.2004;135
03.02.2004;126
04.02.2004;142
05.02.2004;155
06.02.2004;155
07.02.2004;139
08.02.2004;140
09.02.2004;146
10.02.2004;164
11.02.2004;152
12.02.2004;151
13.02.2004;149
14.02.2004;156
15.02.2004;150
16.02.2004;147
17.02.2004;149
18.02.2004;126
19.02.2004;140
20.02.2004;148
21.02.2004;146
22.02.2004;133
23.02.2004;139
24.02.2004;148
25.02.2004;138
26.02.2004;150
27.02.2004;142
28.02.2004;143
29.02.2004;136
01.03.2004;139
02.03.2004;137
03.03.2004;113
04.03.2004;131
05.03.2004;130
06.03.2004;130
07.03.2004;123
08.03.2004;119
09.03.2004;116
10.03.2004;107
11.03.2004;107
12.03.2004;104
13.03.2004;99
14.03.2004;95
15.03.2004;100
16.03.2004;106
17.03.2004;114
18.03.2004;123
19.03.2004;113
20.03.2004;116
21.03.2004;117
22.03.2004;138
23.03.2004;145
24.03.2004;136
25.03.2004;114
26.03.2004;132
27.03.2004;143
28.03.2004;139
29.03.2004;144
30.03.2004;156
31.03.2004;155
01.04.2004;151
02.04.2004;149
03.04.2004;144
04.04.2004;140
05.04.2004;150
06.04.2004;149
07.04.2004;142
08.04.2004;141
09.04.2004;155
10.04.2004;154
11.04.2004;168
12.04.2004;174
13.04.2004;169
14.04.2004;163
15.04.2004;166
16.04.2004;158
17.04.2004;147
18.04.2004;143
19.04.2004;148
20.04.2004;151
21.04.2004;150
22.04.2004;141
23.04.2004;141
24.04.2004;137
25.04.2004;141
26.04.2004;142
27.04.2004;139
28.04.2004;137
29.04.2004;121
30.04.2004;128
01.05.2004;133
02.05.2004;122
03.05.2004;120
04.05.2004;126
05.05.2004;123
06.05.2004;112
07.05.2004;119
08.05.2004;118
09.05.2004;121
10.05.2004;125
11.05.2004;120
12.05.2004;116
13.05.2004;115
14.05.2004;134
15.05.2004;128
16.05.2004;134
17.05.2004;130
18.05.2004;131
19.05.2004;144
20.05.2004;153
21.05.2004;160
22.05.2004;157
23.05.2004;156
24.05.2004;155
25.05.2004;150
26.05.2004;150
27.05.2004;159
28.05.2004;154
29.05.2004;153
30.05.2004;156
31.05.2004;154
01.06.2004;139
02.06.2004;133
03.06.2004;134
04.06.2004;133
05.06.2004;127
06.06.2004;137
07.06.2004;139
08.06.2004;129
09.06.2004;147
10.06.2004;133
11.06.2004;124
12.06.2004;131
13.06.2004;144
14.06.2004;159
15.06.2004;161
16.06.2004;166
17.06.2004;167
18.06.2004;153
19.06.2004;147
20.06.2004;152
21.06.2004;143
22.06.2004;157
23.06.2004;154
24.06.2004;137
25.06.2004;146
26.06.2004;144
27.06.2004;148
28.06.2004;154
29.06.2004;164
30.06.2004;180
01.07.2004;158
02.07.2004;170
03.07.2004;176
04.07.2004;156
05.07.2004;166
06.07.2004;168
07.07.2004;160
08.07.2004;135
09.07.2004;134
10.07.2004;130
11.07.2004;132
12.07.2004;138
13.07.2004;139
14.07.2004;137
15.07.2004;139
16.07.2004;140
17.07.2004;131
18.07.2004;136
19.07.2004;133
20.07.2004;131
21.07.2004;130
22.07.2004;129
23.07.2004;130
24.07.2004;131
25.07.2004;130
26.07.2004;128
27.07.2004;129
28.07.2004;129
29.07.2004;130
30.07.2004;129
31.07.2004;132
01.08.2004;128
02.08.2004;128
03.08.2004;129
04.08.2004;128
05.08.2004;128
06.08.2004;130
07.08.2004;128
08.08.2004;128
09.08.2004;114
10.08.2004;114
11.08.2004;129
12.08.2004;121
13.08.2004;116
14.08.2004;114
15.08.2004;124
16.08.2004;121
17.08.2004;113
18.08.2004;130
19.08.2004;119
20.08.2004;129
21.08.2004;116
22.08.2004;127
23.08.2004;145
24.08.2004;148
25.08.2004;121
26.08.2004;112
27.08.2004;141
28.08.2004;142
29.08.2004;138
30.08.2004;125
31.08.2004;125
01.09.2004;134
02.09.2004;145
03.09.2004;148
04.09.2004;137
05.09.2004;137
06.09.2004;146
07.09.2004;159
08.09.2004;144
09.09.2004;145
10.09.2004;142
11.09.2004;140
12.09.2004;141
13.09.2004;168
14.09.2004;149
15.09.2004;143
16.09.2004;162
17.09.2004;170
18.09.2004;159
19.09.2004;147
20.09.2004;152
21.09.2004;141
22.09.2004;156
23.09.2004;161
24.09.2004;161
25.09.2004;175
26.09.2004;174
27.09.2004;177
28.09.2004;187
29.09.2004;186
30.09.2004;166
01.10.2004;161
02.10.2004;153
03.10.2004;148
04.10.2004;146
05.10.2004;141
06.10.2004;148
07.10.2004;159
08.10.2004;167
09.10.2004;150
10.10.2004;146
11.10.2004;146
12.10.2004;151
13.10.2004;140
14.10.2004;124
15.10.2004;116
16.10.2004;119
17.10.2004;106
18.10.2004;126
19.10.2004;128
20.10.2004;138
21.10.2004;120
22.10.2004;128
23.10.2004;146
24.10.2004;136
25.10.2004;136
26.10.2004;148
27.10.2004;146
28.10.2004;162
29.10.2004;124
30.10.2004;117
31.10.2004;128
01.11.2004;158
02.11.2004;162
03.11.2004;160
04.11.2004;139
05.11.2004;140
06.11.2004;144
07.11.2004;150
08.11.2004;150
09.11.2004;148
10.11.2004;125
11.11.2004;140
12.11.2004;173
13.11.2004;144
14.11.2004;165
15.11.2004;181
16.11.2004;184
17.11.2004;171
18.11.2004;148
19.11.2004;155
20.11.2004;153
21.11.2004;168
22.11.2004;163
23.11.2004;113
24.11.2004;142
25.11.2004;168
26.11.2004;173
27.11.2004;159
28.11.2004;143
29.11.2004;148
30.11.2004;146
01.12.2004;163
02.12.2004;140
03.12.2004;148
04.12.2004;161
05.12.2004;167
06.12.2004;157
07.12.2004;188
08.12.2004;176
09.12.2004;181
10.12.2004;165
11.12.2004;178
12.12.2004;186
13.12.2004;159
14.12.2004;157
15.12.2004;187
16.12.2004;183
17.12.2004;171
18.12.2004;173
19.12.2004;169
20.12.2004;195
21.12.2004;186
22.12.2004;177
23.12.2004;165
24.12.2004;182
25.12.2004;176
26.12.2004;185
27.12.2004;173
28.12.2004;153
29.12.2004;154
30.12.2004;172
31.12.2004;180
01.01.2005;166
02.01.2005;167
03.01.2005;181
04.01.2005;188
05.01.2005;204
06.01.2005;189
07.01.2005;206
08.01.2005;203
09.01.2005;276
10.01.2005;223
11.01.2005;217
12.01.2005;212
13.01.2005;236
14.01.2005;231
15.01.2005;215
16.01.2005;219
17.01.2005;222
18.01.2005;208
19.01.2005;197
20.01.2005;200
21.01.2005;189
22.01.2005;216
23.01.2005;214
24.01.2005;189
25.01.2005;188
26.01.2005;189
27.01.2005;171
28.01.2005;167
29.01.2005;168
30.01.2005;180
31.01.2005;182
01.02.2005;176
02.02.2005;174
03.02.2005;176
04.02.2005;174
05.02.2005;166
06.02.2005;165
07.02.2005;153
08.02.2005;140
09.02.2005;136
10.02.2005;135
11.02.2005;143
12.02.2005;152
13.02.2005;111
14.02.2005;142
15.02.2005;157
16.02.2005;152
17.02.2005;143
18.02.2005;151
19.02.2005;145
20.02.2005;139
21.02.2005;141
22.02.2005;122
23.02.2005;109
24.02.2005;117
25.02.2005;136
26.02.2005;136
27.02.2005;132
28.02.2005;138
01.03.2005;137
02.03.2005;138
03.03.2005;132
04.03.2005;129
05.03.2005;122
06.03.2005;123
07.03.2005;125
08.03.2005;132
09.03.2005;127
10.03.2005;121
11.03.2005;117
12.03.2005;124
13.03.2005;136
14.03.2005;140
15.03.2005;140
16.03.2005;128
17.03.2005;135
18.03.2005;155
19.03.2005;141
20.03.2005;153
21.03.2005;142
22.03.2005;132
23.03.2005;127
24.03.2005;133
25.03.2005;132
26.03.2005;123
27.03.2005;118
28.03.2005;112
29.03.2005;105
30.03.2005;105
31.03.2005;111
01.04.2005;116
02.04.2005;107
03.04.2005;110
04.04.2005;123
05.04.2005;115
06.04.2005;129
07.04.2005;115
08.04.2005;126
09.04.2005;124
10.04.2005;139
11.04.2005;161
12.04.2005;159
13.04.2005;152
14.04.2005;148
15.04.2005;164
16.04.2005;146
17.04.2005;145
18.04.2005;154
19.04.2005;148
20.04.2005;147
21.04.2005;150
22.04.2005;151
23.04.2005;139
24.04.2005;140
25.04.2005;137
26.04.2005;129
27.04.2005;116
28.04.2005;106
29.04.2005;139
30.04.2005;126
01.05.2005;126
02.05.2005;125
03.05.2005;111
04.05.2005;122
05.05.2005;128
06.05.2005;132
07.05.2005;130
08.05.2005;131
09.05.2005;145
10.05.2005;135
11.05.2005;153
12.05.2005;154
13.05.2005;152
14.05.2005;150
15.05.2005;153
16.05.2005;143
17.05.2005;160
18.05.2005;157
19.05.2005;159
20.05.2005;149
21.05.2005;142
22.05.2005;143
23.05.2005;142
24.05.2005;146
25.05.2005;152
26.05.2005;151
27.05.2005;154
28.05.2005;152
29.05.2005;143
30.05.2005;144
31.05.2005;142
01.06.2005;155
02.06.2005;156
03.06.2005;147
04.06.2005;137
05.06.2005;149
06.06.2005;153
07.06.2005;154
08.06.2005;163
09.06.2005;154
10.06.2005;146
11.06.2005;144
12.06.2005;152
13.06.2005;162
14.06.2005;163
15.06.2005;156
16.06.2005;149
17.06.2005;147
18.06.2005;149
19.06.2005;152
20.06.2005;148
21.06.2005;140
22.06.2005;139
23.06.2005;149
24.06.2005;152
25.06.2005;150
26.06.2005;167
27.06.2005;156
28.06.2005;159
29.06.2005;161
30.06.2005;158
01.07.2005;142
02.07.2005;147
03.07.2005;144
04.07.2005;130
05.07.2005;126
06.07.2005;128
07.07.2005;122
08.07.2005;126
09.07.2005;125
10.07.2005;124
11.07.2005;128
12.07.2005;132
13.07.2005;128
14.07.2005;127
15.07.2005;131
16.07.2005;120
17.07.2005;130
18.07.2005;129
19.07.2005;129
20.07.2005;142
21.07.2005;133
22.07.2005;139
23.07.2005;143
24.07.2005;147
25.07.2005;142
26.07.2005;137
27.07.2005;154
28.07.2005;155
29.07.2005;150
30.07.2005;142
31.07.2005;145
01.08.2005;145
02.08.2005;151
03.08.2005;149
04.08.2005;130
05.08.2005;145
06.08.2005;136
07.08.2005;140
08.08.2005;136
09.08.2005;131
10.08.2005;118
11.08.2005;145
12.08.2005;157
13.08.2005;159
14.08.2005;162
15.08.2005;155
16.08.2005;155
17.08.2005;172
18.08.2005;155
19.08.2005;139
20.08.2005;135
21.08.2005;142
22.08.2005;138
23.08.2005;120
24.08.2005;123
25.08.2005;119
26.08.2005;121
27.08.2005;137
28.08.2005;146
29.08.2005;149
30.08.2005;167
31.08.2005;163
01.09.2005;133
02.09.2005;124
03.09.2005;129
04.09.2005;137
05.09.2005;140
06.09.2005;130
07.09.2005;131
08.09.2005;141
09.09.2005;150
10.09.2005;131
11.09.2005;119
12.09.2005;120
13.09.2005;141
14.09.2005;146
15.09.2005;148
16.09.2005;146
17.09.2005;145
18.09.2005;155
19.09.2005;140
20.09.2005;143
21.09.2005;143
22.09.2005;139
23.09.2005;137
24.09.2005;126
25.09.2005;124
26.09.2005;120
27.09.2005;121
28.09.2005;120
29.09.2005;131
30.09.2005;126
01.10.2005;131
02.10.2005;120
03.10.2005;134
04.10.2005;140
05.10.2005;137
06.10.2005;137
07.10.2005;125
08.10.2005;116
09.10.2005;111
10.10.2005;116
11.10.2005;116
12.10.2005;110
13.10.2005;110
14.10.2005;115
15.10.2005;142
16.10.2005;112
17.10.2005;108
18.10.2005;111
19.10.2005;107
20.10.2005;107
21.10.2005;119
22.10.2005;116
23.10.2005;129
24.10.2005;130
25.10.2005;117
26.10.2005;98
27.10.2005;118
28.10.2005;118
29.10.2005;123
30.10.2005;118
31.10.2005;117
01.11.2005;116
02.11.2005;121
03.11.2005;120
04.11.2005;114
05.11.2005;124
06.11.2005;136
07.11.2005;138
08.11.2005;133
09.11.2005;136
10.11.2005;134
11.11.2005;141
12.11.2005;136
13.11.2005;141
14.11.2005;175
15.11.2005;202
16.11.2005;158
17.11.2005;150
18.11.2005;167
19.11.2005;162
20.11.2005;141
21.11.2005;133
22.11.2005;132
23.11.2005;154
24.11.2005;145
25.11.2005;118
26.11.2005;135
27.11.2005;129
28.11.2005;109
29.11.2005;142
30.11.2005;139
01.12.2005;134
02.12.2005;143
03.12.2005;122
04.12.2005;102
05.12.2005;93
06.12.2005;92
07.12.2005;85
08.12.2005;85
09.12.2005;113
10.12.2005;124
11.12.2005;111
12.12.2005;146
13.12.2005;162
14.12.2005;125
15.12.2005;134
16.12.2005;133
17.12.2005;134
18.12.2005;139
19.12.2005;145
20.12.2005;129
21.12.2005;137
22.12.2005;132
23.12.2005;133
24.12.2005;131
25.12.2005;141
26.12.2005;111
27.12.2005;122
28.12.2005;121
29.12.2005;121
30.12.2005;120
31.12.2005;95
01.01.2006;106
02.01.2006;122
03.01.2006;119
04.01.2006;110
05.01.2006;109
06.01.2006;108
07.01.2006;106
08.01.2006;112
09.01.2006;111
10.01.2006;111
11.01.2006;129
12.01.2006;138
13.01.2006;129
14.01.2006;119
15.01.2006;123
16.01.2006;107
17.01.2006;78
18.01.2006;58
19.01.2006;74
20.01.2006;76
21.01.2006;50
22.01.2006;70
23.01.2006;96
24.01.2006;115
25.01.2006;103
26.01.2006;100
27.01.2006;128
28.01.2006;110
29.01.2006;111
30.01.2006;116
31.01.2006;106
01.02.2006;108
02.02.2006;106
03.02.2006;100
04.02.2006;103
05.02.2006;105
06.02.2006;111
07.02.2006;92
08.02.2006;95
09.02.2006;94
10.02.2006;110
11.02.2006;115
12.02.2006;113
13.02.2006;115
14.02.2006;119
15.02.2006;107
16.02.2006;78
17.02.2006;90
18.02.2006;90
19.02.2006;94
20.02.2006;103
21.02.2006;98
22.02.2006;102
23.02.2006;88
24.02.2006;99
25.02.2006;101
26.02.2006;97
27.02.2006;93
28.02.2006;101
01.03.2006;91
02.03.2006;79
03.03.2006;88
04.03.2006;85
05.03.2006;91
06.03.2006;99
07.03.2006;114
08.03.2006;105
09.03.2006;95
10.03.2006;88
11.03.2006;85
12.03.2006;86
13.03.2006;86
14.03.2006;74
15.03.2006;72
16.03.2006;73
17.03.2006;77
18.03.2006;86
19.03.2006;95
20.03.2006;107
21.03.2006;99
22.03.2006;93
23.03.2006;95
24.03.2006;98
25.03.2006;91
26.03.2006;89
27.03.2006;75
28.03.2006;82
29.03.2006;101
30.03.2006;102
31.03.2006;93
01.04.2006;110
02.04.2006;103
03.04.2006;98
04.04.2006;102
05.04.2006;105
06.04.2006;115
07.04.2006;120
08.04.2006;113
09.04.2006;110
10.04.2006;117
11.04.2006;126
12.04.2006;129
13.04.2006;138
14.04.2006;130
15.04.2006;134
16.04.2006;128
17.04.2006;130
18.04.2006;136
19.04.2006;155
20.04.2006;144
21.04.2006;158
22.04.2006;148
23.04.2006;126
24.04.2006;121
25.04.2006;129
26.04.2006;122
27.04.2006;117
28.04.2006;118
29.04.2006;102
30.04.2006;106
01.05.2006;105
02.05.2006;102
03.05.2006;101
04.05.2006;104
05.05.2006;96
06.05.2006;100
07.05.2006;102
08.05.2006;95
09.05.2006;97
10.05.2006;88
11.05.2006;94
12.05.2006;87
13.05.2006;98
14.05.2006;110
15.05.2006;126
16.05.2006;114
17.05.2006;102
18.05.2006;98
19.05.2006;88
20.05.2006;106
21.05.2006;105
22.05.2006;115
23.05.2006;104
24.05.2006;138
25.05.2006;123
26.05.2006;122
27.05.2006;129
28.05.2006;134
29.05.2006;136
30.05.2006;131
31.05.2006;129
01.06.2006;147
02.06.2006;146
03.06.2006;139
04.06.2006;137
05.06.2006;143
06.06.2006;142
07.06.2006;139
08.06.2006;130
09.06.2006;128
10.06.2006;136
11.06.2006;132
12.06.2006;120
13.06.2006;115
14.06.2006;114
15.06.2006;121
16.06.2006;124
17.06.2006;115
18.06.2006;109
19.06.2006;108
20.06.2006;107
21.06.2006;104
22.06.2006;107
23.06.2006;114
24.06.2006;113
25.06.2006;112
26.06.2006;110
27.06.2006;111
28.06.2006;124
29.06.2006;132
30.06.2006;122
01.07.2006;108
02.07.2006;112
03.07.2006;114
04.07.2006;112
05.07.2006;111
06.07.2006;105
07.07.2006;102
08.07.2006;101
09.07.2006;105
10.07.2006;104
11.07.2006;106
12.07.2006;119
13.07.2006;110
14.07.2006;116
15.07.2006;123
16.07.2006;122
17.07.2006;116
18.07.2006;122
19.07.2006;127
20.07.2006;117
21.07.2006;107
22.07.2006;104
23.07.2006;107
24.07.2006;110
25.07.2006;123
26.07.2006;125
27.07.2006;116
28.07.2006;117
29.07.2006;105
30.07.2006;102
31.07.2006;103
01.08.2006;98
02.08.2006;94
03.08.2006;98
04.08.2006;108
05.08.2006;97
06.08.2006;99
07.08.2006;96
08.08.2006;99
09.08.2006;103
10.08.2006;105
11.08.2006;103
12.08.2006;92
13.08.2006;90
14.08.2006;92
15.08.2006;96
16.08.2006;105
17.08.2006;103
18.08.2006;101
19.08.2006;102
20.08.2006;101
21.08.2006;99
22.08.2006;100
23.08.2006;100
24.08.2006;111
25.08.2006;111
26.08.2006;112
27.08.2006;103
28.08.2006;115
29.08.2006;111
30.08.2006;114
31.08.2006;128
01.09.2006;135
02.09.2006;126
03.09.2006;119
04.09.2006;127
05.09.2006;152
06.09.2006;159
07.09.2006;144
08.09.2006;163
09.09.2006;194
10.09.2006;174
11.09.2006;150
12.09.2006;142
13.09.2006;138
14.09.2006;137
15.09.2006;118
16.09.2006;121
17.09.2006;116
18.09.2006;112
19.09.2006;111
20.09.2006;131
21.09.2006;131
22.09.2006;128
23.09.2006;118
24.09.2006;115
25.09.2006;109
26.09.2006;103
27.09.2006;105
28.09.2006;117
29.09.2006;122
30.09.2006;126
01.10.2006;114
02.10.2006;123
03.10.2006;121
04.10.2006;121
05.10.2006;137
06.10.2006;139
07.10.2006;126
08.10.2006;138
09.10.2006;151
10.10.2006;143
11.10.2006;132
12.10.2006;127
13.10.2006;132
14.10.2006;145
15.10.2006;121
16.10.2006;139
17.10.2006;134
18.10.2006;122
19.10.2006;106
20.10.2006;98
21.10.2006;99
22.10.2006;117
23.10.2006;119
24.10.2006;125
25.10.2006;150
26.10.2006;140
27.10.2006;160
28.10.2006;230
29.10.2006;140
30.10.2006;159
31.10.2006;134
01.11.2006;140
02.11.2006;170
03.11.2006;153
04.11.2006;141
05.11.2006;140
06.11.2006;159
07.11.2006;176
08.11.2006;189
09.11.2006;156
10.11.2006;173
11.11.2006;160
12.11.2006;137
13.11.2006;161
14.11.2006;159
15.11.2006;176
16.11.2006;173
17.11.2006;146
18.11.2006;157
19.11.2006;165
20.11.2006;151
21.11.2006;154
22.11.2006;146
23.11.2006;142
24.11.2006;147
25.11.2006;145
26.11.2006;154
27.11.2006;158
28.11.2006;157
29.11.2006;153
30.11.2006;165
01.12.2006;166
02.12.2006;161
03.12.2006;165
04.12.2006;152
05.12.2006;158
06.12.2006;169
07.12.2006;177
08.12.2006;161
09.12.2006;144
10.12.2006;154
11.12.2006;184
12.12.2006;159
13.12.2006;177
14.12.2006;171
15.12.2006;210
16.12.2006;193
17.12.2006;190
18.12.2006;191
19.12.2006;185
20.12.2006;166
21.12.2006;182
22.12.2006;191
23.12.2006;212
24.12.2006;194
25.12.2006;171
26.12.2006;171
27.12.2006;186
28.12.2006;185
29.12.2006;172
30.12.2006;157
31.12.2006;156
01.01.2007;174
02.01.2007;188
03.01.2007;192
04.01.2007;179
05.01.2007;171
06.01.2007;182
07.01.2007;169
08.01.2007;170
09.01.2007;176
10.01.2007;211
11.01.2007;188
12.01.2007;168
13.01.2007;182
14.01.2007;201
15.01.2007;214
16.01.2007;222
17.01.2007;212
18.01.2007;218
19.01.2007;207
20.01.2007;207
21.01.2007;175
22.01.2007;190
23.01.2007;200
24.01.2007;196
25.01.2007;180
26.01.2007;199
27.01.2007;182
28.01.2007;203
29.01.2007;188
30.01.2007;186
31.01.2007;179
01.02.2007;176
02.02.2007;189
03.02.2007;188
04.02.2007;196
05.02.2007;178
06.02.2007;173
07.02.2007;167
08.02.2007;160
09.02.2007;143
10.02.2007;152
11.02.2007;151
12.02.2007;135
13.02.2007;122
14.02.2007;136